Keokuk, IA

10:44 PM CDT on March 23, 2017 (GMT -0500)
Keokuk Municipal

Weather History for KEOK - January, 2012

Change the Weather History Date:

Friday, January 13, 2012

  Actual Average Record
Temperature  
Mean Temperature 15 °F -  
Max Temperature 24 °F 33 °F 52 °F (1953)
Min Temperature 6 °F 17 °F -5 °F (1957)
Degree Days  
Heating Degree Days 50    
Moisture  
Dew Point 10 °F    
Average Humidity 80    
Maximum Humidity 92    
Minimum Humidity 63    
Precipitation  
Precipitation 0.00 in - - ()
Sea Level Pressure  
Sea Level Pressure 30.00 in    
Wind  
Wind Speed 12 mph (West)    
Max Wind Speed 16 mph    
Max Gust Speed 24 mph    
Visibility 9 miles    
Events Snow    
Averages and records for this station are not official NWS values.
T = Trace of Precipitation, MM = Missing Value Source: NWS Daily Summary

Daily Weather History Graph

Daily Weather History Graph

Search for Another Location

Airport or City:

Trip Planner

Search our weather history database for the weather conditions in past years. The results will help you decide how hot, cold, wet, or windy it might be!

Date:

Astronomy

Jan. 13, 2012 Rise Set
Actual Time 7:27 AM CST 5:01 PM CST
Civil Twilight 6:57 AM CST 5:31 PM CST
Nautical Twilight 6:23 AM CST 6:04 PM CST
Astronomical Twilight 5:51 AM CST 6:37 PM CST
Moon 10:15 PM CST (1/13) 9:41 AM CST (1/13)
Length of Visible Light 10h 33m
Length of Day
9h 33m
Waning Gibbous, 78% of the Moon is Illuminated
Jan 13
Waning Gibbous
Jan 16
Last Quarter
Jan 23
New
Jan 30
First Quarter
Feb 7
Full

Hourly Weather History & Observations

Time (CST) Temp. Windchill Dew Point Humidity Pressure Visibility Wind Dir Wind Speed Gust Speed Precip Events Conditions
12:15 AM 12.2 °F -3.7 °F 8.6 °F 85% 29.86 in 7.0 mi WNW 15.0 mph 24.2 mph N/A Snow Light Snow
12:35 AM 12.2 °F -3.1 °F 8.6 °F 85% 29.86 in 10.0 mi WNW 13.8 mph 24.2 mph N/A   Overcast
12:55 AM 12.2 °F -1.0 °F 8.6 °F 85% 29.87 in 7.0 mi West 10.4 mph - N/A Snow Light Snow
1:15 AM 12.2 °F -3.1 °F 10.4 °F 92% 29.87 in 7.0 mi West 13.8 mph 20.7 mph N/A Snow Light Snow
1:35 AM 12.2 °F -3.1 °F 10.4 °F 92% 29.88 in 5.0 mi WNW 13.8 mph - N/A Snow Light Snow
1:55 AM 12.2 °F -1.0 °F 10.4 °F 92% 29.88 in 5.0 mi West 10.4 mph - N/A Snow Light Snow
2:15 AM 12.2 °F -3.1 °F 10.4 °F 92% 29.89 in 7.0 mi WNW 13.8 mph - N/A Snow Light Snow
2:35 AM 12.2 °F -3.1 °F 10.4 °F 92% 29.89 in 10.0 mi WNW 13.8 mph - N/A Snow Light Snow
2:55 AM 14.0 °F -0.8 °F 10.4 °F 86% 29.90 in 7.0 mi West 13.8 mph - N/A   Overcast
3:15 AM 14.0 °F -0.2 °F 10.4 °F 86% 29.90 in 7.0 mi West 12.7 mph - N/A   Overcast
3:35 AM 12.2 °F -2.5 °F 10.4 °F 92% 29.90 in 7.0 mi West 12.7 mph 18.4 mph N/A   Overcast
3:55 AM 12.2 °F -3.1 °F 8.6 °F 85% 29.90 in 10.0 mi West 13.8 mph 19.6 mph N/A   Mostly Cloudy
4:15 AM 12.2 °F -3.1 °F 8.6 °F 85% 29.91 in 10.0 mi West 13.8 mph - N/A   Scattered Clouds
4:35 AM 14.0 °F -2.0 °F 8.6 °F 79% 29.91 in 10.0 mi West 16.1 mph 20.7 mph N/A   Overcast
4:55 AM 14.0 °F -0.2 °F 10.4 °F 86% 29.92 in 10.0 mi West 12.7 mph - N/A   Overcast
5:15 AM 15.8 °F 2.7 °F 10.4 °F 79% 29.93 in 10.0 mi West 11.5 mph 17.3 mph N/A   Overcast
5:35 AM 15.8 °F 1.4 °F 10.4 °F 79% 29.93 in 10.0 mi West 13.8 mph - N/A   Overcast
6:15 AM 15.8 °F 2.1 °F 10.4 °F 79% 29.94 in 10.0 mi WNW 12.7 mph 18.4 mph N/A   Overcast
6:35 AM 15.8 °F 2.1 °F 10.4 °F 79% 29.95 in 10.0 mi WNW 12.7 mph 19.6 mph N/A   Overcast
6:55 AM 14.0 °F -0.8 °F 10.4 °F 86% 29.95 in 10.0 mi WNW 13.8 mph 19.6 mph N/A Snow Light Snow
7:15 AM 14.0 °F -0.2 °F 10.4 °F 86% 29.96 in 7.0 mi WNW 12.7 mph 19.6 mph N/A Snow Light Snow
7:35 AM 14.0 °F -0.2 °F 10.4 °F 86% 29.97 in 10.0 mi WNW 12.7 mph - N/A Snow Light Snow
7:55 AM 14.0 °F 1.2 °F 10.4 °F 86% 29.99 in 10.0 mi West 10.4 mph - N/A Snow Light Snow
8:15 AM 15.8 °F 2.1 °F 10.4 °F 79% 30.00 in 10.0 mi West 12.7 mph - N/A Snow Light Snow
8:35 AM 15.8 °F 2.1 °F 10.4 °F 79% 30.00 in 10.0 mi West 12.7 mph - N/A Snow Light Snow
8:55 AM 15.8 °F 2.1 °F 10.4 °F 79% 30.02 in 7.0 mi West 12.7 mph - N/A Snow Light Snow
9:15 AM 15.8 °F 2.7 °F 10.4 °F 79% 30.02 in 10.0 mi West 11.5 mph 17.3 mph N/A Snow Light Snow
9:35 AM 15.8 °F 2.1 °F 10.4 °F 79% 30.03 in 7.0 mi WNW 12.7 mph 16.1 mph N/A Snow Light Snow
9:55 AM 15.8 °F 1.4 °F 12.2 °F 86% 30.04 in 5.0 mi West 13.8 mph - N/A Snow Light Snow
10:15 AM 17.6 °F 4.3 °F 12.2 °F 79% 30.04 in 5.0 mi West 12.7 mph 16.1 mph N/A Snow Light Snow
10:35 AM 17.6 °F 5.0 °F 12.2 °F 79% 30.04 in 3.0 mi West 11.5 mph - N/A Snow Light Snow
10:55 AM 19.4 °F 8.6 °F 12.2 °F 74% 30.04 in 4.0 mi West 9.2 mph - N/A Snow Light Snow
11:15 AM 19.4 °F 7.2 °F 14.0 °F 80% 30.04 in 7.0 mi West 11.5 mph - N/A Snow Light Snow
11:35 AM 19.4 °F 6.0 °F 14.0 °F 80% 30.04 in 10.0 mi West 13.8 mph - N/A Snow Light Snow
11:55 AM 19.4 °F 6.6 °F 12.2 °F 74% 30.03 in 10.0 mi WNW 12.7 mph - N/A Snow Light Snow
12:15 PM 21.2 °F 8.3 °F 12.2 °F 68% 30.03 in 10.0 mi West 13.8 mph - N/A Snow Light Snow
12:35 PM 19.4 °F 8.6 °F 12.2 °F 74% 30.03 in 10.0 mi West 9.2 mph - N/A Snow Light Snow
12:55 PM 21.2 °F 10.1 °F 12.2 °F 68% 30.03 in 10.0 mi West 10.4 mph - N/A Snow Light Snow
1:15 PM 21.2 °F 10.9 °F 12.2 °F 68% 30.03 in 10.0 mi West 9.2 mph - N/A   Overcast
1:35 PM 19.4 °F 6.0 °F 12.2 °F 74% 30.02 in 10.0 mi WSW 13.8 mph - N/A   Overcast
1:55 PM 21.2 °F 9.5 °F 12.2 °F 68% 30.03 in 10.0 mi West 11.5 mph - N/A   Overcast
2:15 PM 24.8 °F 14.0 °F 15.8 °F 69% 30.03 in 10.0 mi West 11.5 mph - N/A   Overcast
2:35 PM 21.2 °F 10.9 °F 10.4 °F 63% 30.04 in 10.0 mi West 9.2 mph - N/A   Overcast
2:55 PM 19.4 °F 7.9 °F 12.2 °F 74% 30.05 in 10.0 mi West 10.4 mph - N/A   Overcast
3:15 PM 19.4 °F 8.6 °F 12.2 °F 74% 30.05 in 10.0 mi West 9.2 mph - N/A   Overcast
3:35 PM 19.4 °F 7.9 °F 12.2 °F 74% 30.06 in 10.0 mi West 10.4 mph - N/A Snow Light Snow
3:55 PM 17.6 °F 4.3 °F 12.2 °F 79% 30.06 in 10.0 mi WSW 12.7 mph - N/A   Overcast
4:15 PM 17.6 °F 4.3 °F 12.2 °F 79% 30.07 in 10.0 mi West 12.7 mph - N/A   Overcast
4:35 PM 17.6 °F 5.7 °F 12.2 °F 79% 30.07 in 10.0 mi West 10.4 mph - N/A   Overcast
4:55 PM 17.6 °F 7.3 °F 12.2 °F 79% 30.08 in 10.0 mi West 8.1 mph - N/A Snow Light Snow
5:15 PM 17.6 °F 10.7 °F 12.2 °F 79% 30.08 in 10.0 mi West 4.6 mph - N/A Snow Light Snow
5:35 PM 15.8 °F 8.6 °F 10.4 °F 79% 30.09 in 10.0 mi West 4.6 mph - N/A Snow Light Snow
5:55 PM 12.2 °F - 8.6 °F 85% 30.09 in 10.0 mi Calm Calm - N/A   Clear
6:15 PM 12.2 °F - 6.8 °F 79% 30.09 in 10.0 mi Calm Calm - N/A   Clear
6:35 PM 10.4 °F - 6.8 °F 85% 30.09 in 10.0 mi Calm Calm - N/A   Clear
6:55 PM 10.4 °F - 5.0 °F 79% 30.09 in 10.0 mi Calm Calm - N/A   Clear
7:15 PM 8.6 °F - 3.2 °F 79% 30.10 in 10.0 mi Calm Calm - N/A   Clear
7:35 PM 8.6 °F - 5.0 °F 85% 30.10 in 10.0 mi Calm Calm - N/A   Clear
7:55 PM 6.8 °F - 3.2 °F 85% 30.09 in 10.0 mi Calm Calm - N/A   Clear
8:15 PM 6.8 °F - 3.2 °F 85% 30.10 in 10.0 mi Calm Calm - N/A   Clear
8:55 PM 10.4 °F - 5.0 °F 79% 30.08 in 10.0 mi Calm Calm - N/A   Clear
9:15 PM 8.6 °F - 3.2 °F 79% 30.08 in 10.0 mi Calm Calm - N/A   Clear
9:35 PM 8.6 °F - 3.2 °F 79% 30.08 in 10.0 mi Calm Calm - N/A   Clear
9:55 PM 8.6 °F - 3.2 °F 79% 30.08 in 10.0 mi Calm Calm - N/A   Clear
10:35 PM 8.6 °F - 3.2 °F 79% 30.08 in 10.0 mi Calm Calm - N/A   Clear
10:55 PM 8.6 °F - 3.2 °F 79% 30.07 in 10.0 mi Calm Calm - N/A   Clear
11:15 PM 8.6 °F - 3.2 °F 79% 30.07 in 10.0 mi Calm Calm - N/A   Clear
11:35 PM 10.4 °F - 5.0 °F 79% 30.06 in 10.0 mi Calm Calm - N/A   Clear
11:55 PM 10.4 °F - 6.8 °F 85% 30.05 in 10.0 mi Calm Calm - N/A   Clear